Weather in Staraya Binaradka

Russia / Samara Oblast     53°34′43″N   49°58′01″E
temp.,
°C
wind,
m/s
gust,
m/s
humid.,
%
clouds,
%
prec.,
mm/h
press.,
hPa
HPBL,
m
5 august, thu
thu501:00+17nnw399398 0.4 1012213
04:00+16nw22950 0.4 101439
07:00+18nnw38905 0.0 1014295
10:00+25nnw574813 0.0 10141340
13:00+28nnw552992 0.0 10132942
16:00+26n573195 0.0 10141885
19:00+25nnw57291 0.0 10151108
22:00+18nnw3105151 0.0 1016195
6 august, fri
fri601:00+15nnw2274100 0.0 101622
04:00+14nw23770 0.0 101736
07:00+17nnw37595 0.0 1017237
10:00+24n55345 0.0 10181634
13:00+27n442461 0.0 10162097
16:00+28n442112 0.0 10162363
19:00+25n35273 0.0 1016330
22:00+18n234199 0.0 101723
7 august, sat
sat701:00+16ne124862 0.0 101714
04:00+15ese22476 0.0 101715
07:00+18ese23405 0.0 1018113
10:00+26se232626 0.0 1018785
13:00+30sse22215 0.0 10171739
16:00+32s222023 0.0 10162213
19:00+29sw112810 0.0 101621
22:00+22ne113785 0.0 101711
8 august, sun
sun801:00+20sse2243100 0.0 101716
04:00+19sse3347100 0.0 101834
07:00+21sse2742100 0.0 1018178
10:00+29s462433 0.0 1018664
13:00+34s441729 0.0 10172543
16:00+34s3317100 0.0 10162828
19:00+30s2226100 0.0 101622
22:00+26sse2230100 0.0 101613
9 august, mon
mon901:00+24ssw2232100 0.0 101511
04:00+23s1134100 0.0 101511
07:00+25nw4933100 0.0 1015239
10:00+29e2328100 0.0 1014275
13:00+35se461877 0.0 10132119
16:00+33ese3620100 0.0 1011844
19:00+30ese2323100 0.0 101062
22:00+28e3427100 0.0 101075